Keokuk, IA

3:56 AM CDT on September 24, 2017 (GMT -0500)
Keokuk Municipal

Weather History for KEOK - November, 2012

Change the Weather History Date:

Saturday, November 10, 2012

  Actual Average Record
Temperature  
Mean Temperature 70 °F -  
Max Temperature 77 °F 51 °F 77 °F (2012)
Min Temperature 64 °F 33 °F 12 °F (1991)
Cooling Degree Days 6    
Growing Degree Days 20 (Base 50)    
Moisture  
Dew Point 51 °F    
Average Humidity 51    
Maximum Humidity 68    
Minimum Humidity 25    
Precipitation  
Precipitation 0.01 in - - ()
Sea Level Pressure  
Sea Level Pressure 29.83 in    
Wind  
Wind Speed 13 mph (South)    
Max Wind Speed 23 mph    
Max Gust Speed 38 mph    
Visibility 10 miles    
Events Rain    
Averages and records for this station are not official NWS values.
T = Trace of Precipitation, MM = Missing Value Source: NWS Daily Summary

Daily Weather History Graph

Daily Weather History Graph

Search for Another Location

Airport or City:

Trip Planner

Search our weather history database for the weather conditions in past years. The results will help you decide how hot, cold, wet, or windy it might be!

Date:

Astronomy

Nov. 10, 2012 Rise Set
Actual Time 6:46 AM CST 4:52 PM CST
Civil Twilight 6:17 AM CST 5:21 PM CST
Nautical Twilight 5:45 AM CST 5:53 PM CST
Astronomical Twilight 5:12 AM CST 6:25 PM CST
Moon 2:51 AM CST (11/10) 2:39 PM CST (11/10)
Length of Visible Light 11h 03m
Length of Day
10h 05m
Waning Crescent, 14% of the Moon is Illuminated
Nov 10
Waning Crescent
Nov 13
New
Nov 20
First Quarter
Nov 28
Full
Dec 6
Last Quarter

Hourly Weather History & Observations

Time (CST) Temp. Dew Point Humidity Pressure Visibility Wind Dir Wind Speed Gust Speed Precip Events Conditions
12:15 AM 66.2 °F 53.6 °F 64% 29.88 in 10.0 mi South 12.7 mph - N/A   Mostly Cloudy
12:35 AM 66.2 °F 53.6 °F 64% 29.88 in 10.0 mi South 9.2 mph - N/A   Scattered Clouds
12:55 AM 66.2 °F 53.6 °F 64% 29.88 in 10.0 mi South 9.2 mph - N/A   Clear
1:15 AM 66.2 °F 53.6 °F 64% 29.88 in 10.0 mi South 6.9 mph - N/A   Clear
1:35 AM 66.2 °F 53.6 °F 64% 29.88 in 10.0 mi South 9.2 mph - N/A   Clear
1:55 AM 66.2 °F 53.6 °F 64% 29.88 in 10.0 mi South 9.2 mph - N/A   Clear
2:15 AM 64.4 °F 53.6 °F 68% 29.88 in 10.0 mi South 9.2 mph - N/A   Clear
2:35 AM 64.4 °F 53.6 °F 68% 29.88 in 10.0 mi South 8.1 mph - N/A   Clear
2:55 AM 64.4 °F 53.6 °F 68% 29.88 in 10.0 mi SSE 8.1 mph - N/A   Clear
3:15 AM 64.4 °F 53.6 °F 68% 29.87 in 10.0 mi South 8.1 mph - N/A   Clear
3:35 AM 64.4 °F 51.8 °F 64% 29.87 in 10.0 mi SSE 8.1 mph 16.1 mph N/A   Clear
3:55 AM 64.4 °F 51.8 °F 64% 29.87 in 10.0 mi South 9.2 mph - N/A   Clear
4:15 AM 64.4 °F 51.8 °F 64% 29.87 in 10.0 mi South 11.5 mph 16.1 mph N/A   Clear
4:35 AM 64.4 °F 51.8 °F 64% 29.87 in 10.0 mi SSE 10.4 mph 16.1 mph N/A   Clear
4:55 AM 64.4 °F 51.8 °F 64% 29.87 in 10.0 mi South 10.4 mph - N/A   Clear
5:15 AM 64.4 °F 50.0 °F 59% 29.86 in 10.0 mi South 11.5 mph 18.4 mph N/A   Clear
6:35 AM 64.4 °F 50.0 °F 59% 29.85 in 10.0 mi South 12.7 mph 21.9 mph N/A   Clear
6:55 AM 64.4 °F 50.0 °F 59% 29.85 in 10.0 mi South 12.7 mph 23.0 mph N/A   Clear
7:15 AM 64.4 °F 51.8 °F 64% 29.86 in 10.0 mi South 16.1 mph 23.0 mph N/A   Clear
7:35 AM 64.4 °F 51.8 °F 64% 29.85 in 10.0 mi South 18.4 mph 26.5 mph N/A   Clear
7:55 AM 66.2 °F 51.8 °F 60% 29.86 in 10.0 mi South 18.4 mph 25.3 mph N/A   Clear
8:15 AM 66.2 °F 51.8 °F 60% 29.86 in 10.0 mi South 19.6 mph 26.5 mph N/A   Clear
8:35 AM 66.2 °F 51.8 °F 60% 29.86 in 10.0 mi SSW 17.3 mph 26.5 mph N/A   Clear
8:55 AM 66.2 °F 51.8 °F 60% 29.86 in 10.0 mi SSW 16.1 mph 24.2 mph N/A   Clear
9:15 AM 64.4 °F 53.6 °F 68% 29.86 in 10.0 mi SSW 16.1 mph 20.7 mph 0.01 in Rain Rain
9:35 AM 64.4 °F 53.6 °F 68% 29.85 in 10.0 mi South 12.7 mph 19.6 mph 0.01 in Rain Light Rain
9:55 AM 64.4 °F 53.6 °F 68% 29.86 in 10.0 mi South 15.0 mph 21.9 mph 0.01 in   Clear
10:15 AM 66.2 °F 53.6 °F 64% 29.85 in 10.0 mi South 15.0 mph 25.3 mph N/A   Clear
10:35 AM 69.8 °F 53.6 °F 56% 29.84 in 10.0 mi South 20.7 mph 24.2 mph N/A   Clear
10:55 AM 69.8 °F 53.6 °F 56% 29.85 in 10.0 mi SSW 23.0 mph 29.9 mph N/A   Clear
11:15 AM 71.6 °F 55.4 °F 57% 29.84 in 10.0 mi SSW 15.0 mph 25.3 mph N/A   Clear
11:35 AM 71.6 °F 53.6 °F 53% 29.83 in 10.0 mi South 18.4 mph 31.1 mph N/A   Clear
11:55 AM 73.4 °F 55.4 °F 53% 29.82 in 10.0 mi SSW 16.1 mph 23.0 mph N/A   Clear
12:15 PM 73.4 °F 55.4 °F 53% 29.81 in 10.0 mi South 13.8 mph 20.7 mph N/A   Clear
12:35 PM 75.2 °F 55.4 °F 50% 29.81 in 10.0 mi South 11.5 mph - N/A   Clear
12:55 PM 73.4 °F 53.6 °F 50% 29.80 in 10.0 mi SSW 18.4 mph - N/A   Clear
1:15 PM 75.2 °F 55.4 °F 50% 29.79 in 10.0 mi South 15.0 mph 20.7 mph N/A   Clear
1:35 PM 75.2 °F 55.4 °F 50% 29.80 in 10.0 mi SSW 12.7 mph 21.9 mph N/A   Clear
1:55 PM 77.0 °F 55.4 °F 47% 29.79 in 10.0 mi South 17.3 mph 24.2 mph N/A   Clear
2:15 PM 77.0 °F 53.6 °F 44% 29.79 in 10.0 mi South 18.4 mph 28.8 mph N/A   Clear
2:35 PM 77.0 °F 53.6 °F 44% 29.79 in 10.0 mi South 15.0 mph 25.3 mph N/A   Clear
2:55 PM 77.0 °F 53.6 °F 44% 29.78 in 10.0 mi South 16.1 mph - N/A   Clear
3:15 PM 77.0 °F 53.6 °F 44% 29.78 in 10.0 mi South 13.8 mph 23.0 mph N/A   Clear
3:35 PM 77.0 °F 53.6 °F 44% 29.79 in 10.0 mi South 11.5 mph 18.4 mph N/A   Clear
3:55 PM 77.0 °F 53.6 °F 44% 29.79 in 10.0 mi South 13.8 mph 20.7 mph N/A   Clear
4:15 PM 77.0 °F 53.6 °F 44% 29.78 in 10.0 mi South 10.4 mph - N/A   Clear
4:35 PM 75.2 °F 53.6 °F 47% 29.78 in 10.0 mi South 11.5 mph - N/A   Clear
4:55 PM 75.2 °F 53.6 °F 47% 29.78 in 10.0 mi South 10.4 mph 17.3 mph N/A   Clear
5:15 PM 75.2 °F 51.8 °F 44% 29.78 in 10.0 mi South 9.2 mph - N/A   Clear
5:35 PM 75.2 °F 48.2 °F 38% 29.79 in 10.0 mi South 9.2 mph - N/A   Clear
5:55 PM 75.2 °F 46.4 °F 36% 29.80 in 10.0 mi South 8.1 mph - N/A   Clear
6:15 PM 75.2 °F 42.8 °F 31% 29.80 in 10.0 mi South 8.1 mph - N/A   Clear
6:35 PM 75.2 °F 42.8 °F 31% 29.81 in 10.0 mi SSE 9.2 mph - N/A   Clear
6:55 PM 75.2 °F 39.2 °F 27% 29.79 in 10.0 mi South 11.5 mph 19.6 mph N/A   Clear
7:15 PM 75.2 °F 39.2 °F 27% 29.78 in 10.0 mi South 12.7 mph 20.7 mph N/A   Clear
7:35 PM 73.4 °F 39.2 °F 29% 29.79 in 10.0 mi South 13.8 mph 25.3 mph N/A   Clear
7:55 PM 75.2 °F 37.4 °F 25% 29.78 in 10.0 mi South 18.4 mph 27.6 mph N/A   Clear
8:15 PM 73.4 °F 37.4 °F 27% 29.78 in 10.0 mi South 17.3 mph 25.3 mph N/A   Clear
8:35 PM 73.4 °F 39.2 °F 29% 29.77 in 10.0 mi South 10.4 mph 26.5 mph N/A   Clear
8:55 PM 73.4 °F 42.8 °F 33% 29.77 in 10.0 mi South 21.9 mph 38.0 mph N/A   Clear
9:15 PM 73.4 °F 42.8 °F 33% 29.77 in 10.0 mi South 20.7 mph 28.8 mph N/A   Clear
9:35 PM 71.6 °F 42.8 °F 35% 29.78 in 10.0 mi South 15.0 mph 25.3 mph N/A   Clear
10:15 PM 71.6 °F 44.6 °F 38% 29.79 in 10.0 mi South 19.6 mph 29.9 mph N/A   Clear
10:35 PM 69.8 °F 46.4 °F 43% 29.78 in 10.0 mi South 17.3 mph 32.2 mph N/A   Clear
10:55 PM 69.8 °F 46.4 °F 43% 29.80 in 10.0 mi South 17.3 mph 28.8 mph N/A   Clear
11:15 PM 69.8 °F 48.2 °F 46% 29.81 in 10.0 mi South 16.1 mph 25.3 mph N/A   Clear
11:35 PM 68.0 °F 50.0 °F 52% 29.82 in 10.0 mi South 15.0 mph 23.0 mph N/A   Clear
11:55 PM 68.0 °F 51.8 °F 56% 29.81 in 10.0 mi South 15.0 mph 24.2 mph N/A   Clear